• In Hungary
  • List of Countries
  • For 7 days
  • Water Temperature
  • Satellite Maps
  • Weather Map
  • News
  • Weather Widgets
  • user-avatar
    Login

    Hourly Weather La Massana

    Today, 22 January, Monday

    Time Temperature Precipitation Wind Pressure Humidity
    00:00 -1°C° 0 mm 4 mps 613 mmHg 82%
    01:00 -1°C° 0 mm 4 mps 613 mmHg 81%
    02:00 0°C° 0 mm 3 mps 613 mmHg 80%
    03:00 -1°C° 0 mm 3 mps 613 mmHg 80%
    04:00 -1°C° 0 mm 3 mps 613 mmHg 79%
    05:00 -1°C° 0 mm 3 mps 613 mmHg 78%
    06:00 -1°C° 0 mm 3 mps 613 mmHg 77%
    07:00 0°C° 0 mm 3 mps 613 mmHg 74%
    08:00 +1°C° 0 mm 3 mps 614 mmHg 71%
    09:00 +1°C° 0 mm 3 mps 614 mmHg 68%
    10:00 +3°C° 0 mm 3 mps 615 mmHg 64%
    11:00 +4°C° 0 mm 3 mps 615 mmHg 61%
    12:00 +7°C° 0 mm 2 mps 616 mmHg 55%
    13:00 +7°C° 0 mm 3 mps 615 mmHg 56%
    14:00 +7°C° 0 mm 3 mps 615 mmHg 58%
    15:00 +5°C° 0 mm 3 mps 615 mmHg 59%
    16:00 +4°C° 0 mm 3 mps 614 mmHg 64%
    17:00 +2°C° 0 mm 3 mps 614 mmHg 70%
    18:00 +1°C° 0 mm 3 mps 613 mmHg 75%
    19:00 +1°C° 0 mm 3 mps 614 mmHg 77%
    20:00 0°C° 0 mm 3 mps 614 mmHg 80%
    21:00 0°C° 0 mm 3 mps 614 mmHg 82%
    22:00 0°C° 0 mm 3 mps 614 mmHg 83%
    23:00 -1°C° 0 mm 3 mps 614 mmHg 83%

    Tomorrow, 23 January, Tuesday

    Time Temperature Precipitation Wind Pressure Humidity
    00:00 -1°C° 0 mm 3 mps 614 mmHg 84%
    01:00 -2°C° 0 mm 3 mps 614 mmHg 80%
    02:00 -2°C° 0 mm 3 mps 614 mmHg 76%
    03:00 -4°C° 0 mm 3 mps 613 mmHg 71%
    04:00 -4°C° 0 mm 3 mps 613 mmHg 67%
    05:00 -4°C° 0 mm 3 mps 613 mmHg 63%
    06:00 -3°C° 0 mm 2 mps 613 mmHg 58%
    07:00 -2°C° 0 mm 2 mps 614 mmHg 54%
    08:00 -1°C° 0 mm 2 mps 615 mmHg 50%
    09:00 +1°C° 0 mm 2 mps 615 mmHg 46%
    10:00 +3°C° 0 mm 2 mps 616 mmHg 44%
    11:00 +5°C° 0 mm 2 mps 617 mmHg 43%
    12:00 +6°C° 0 mm 2 mps 618 mmHg 41%
    13:00 +6°C° 0 mm 2 mps 617 mmHg 46%
    14:00 +6°C° 0 mm 2 mps 617 mmHg 51%
    15:00 +6°C° 0 mm 2 mps 617 mmHg 56%
    16:00 +4°C° 0 mm 2 mps 616 mmHg 63%
    17:00 +2°C° 0 mm 2 mps 616 mmHg 71%
    18:00 +1°C° 0 mm 2 mps 615 mmHg 78%
    19:00 +2°C° 0 mm 1 mps 615 mmHg 78%
    20:00 +1°C° 0 mm 1 mps 615 mmHg 78%
    21:00 +1°C° 0 mm 1 mps 616 mmHg 78%
    22:00 +1°C° 0 mm 1 mps 616 mmHg 77%
    23:00 +1°C° 0 mm 1 mps 616 mmHg 77%

    Day after tomorrow, 24 January, Wednesday

    Time Temperature Precipitation Wind Pressure Humidity
    00:00 +1°C° 0 mm 1 mps 615 mmHg 76%
    01:00 +1°C° 0 mm 1 mps 615 mmHg 76%
    02:00 +1°C° 0 mm 1 mps 615 mmHg 76%
    03:00 +1°C° 0 mm 1 mps 615 mmHg 76%
    04:00 0°C° 0 mm 1 mps 615 mmHg 74%
    05:00 0°C° 0 mm 1 mps 614 mmHg 73%
    06:00 0°C° 0 mm 1 mps 614 mmHg 71%
    07:00 +1°C° 0 mm 1 mps 615 mmHg 67%
    08:00 +2°C° 0 mm 1 mps 615 mmHg 64%
    09:00 +2°C° 0 mm 2 mps 616 mmHg 60%
    10:00 +4°C° 0 mm 2 mps 616 mmHg 56%
    11:00 +5°C° 0 mm 2 mps 617 mmHg 52%
    12:00 +7°C° 0 mm 2 mps 617 mmHg 48%
    13:00 +7°C° 0 mm 2 mps 617 mmHg 51%
    14:00 +6°C° 0 mm 2 mps 616 mmHg 54%
    15:00 +6°C° 0 mm 2 mps 616 mmHg 56%
    16:00 +4°C° 0 mm 2 mps 615 mmHg 63%
    17:00 +2°C° 0 mm 2 mps 614 mmHg 69%
    18:00 +1°C° 0 mm 1 mps 613 mmHg 75%
    19:00 +1°C° 0 mm 1 mps 613 mmHg 74%
    20:00 +1°C° 0 mm 1 mps 613 mmHg 73%
    21:00 +1°C° 0 mm 1 mps 613 mmHg 72%
    22:00 -1°C° 0 mm 2 mps 613 mmHg 73%
    23:00 -2°C° 0 mm 2 mps 613 mmHg 73%

    25 January, Thursday

    Time Temperature Precipitation Wind Pressure Humidity
    00:00 -2°C° 0 mm 2 mps 612 mmHg 74%
    01:00 -2°C° 0 mm 2 mps 612 mmHg 75%
    02:00 -2°C° 0 mm 2 mps 612 mmHg 76%
    03:00 -2°C° 0 mm 2 mps 611 mmHg 77%
    04:00 -2°C° 0 mm 2 mps 611 mmHg 77%
    05:00 -2°C° 0 mm 2 mps 611 mmHg 77%
    06:00 -2°C° 0 mm 2 mps 610 mmHg 77%
    07:00 -1°C° 0 mm 2 mps 611 mmHg 73%
    08:00 +1°C° 0 mm 2 mps 611 mmHg 70%
    09:00 +1°C° 0 mm 2 mps 611 mmHg 67%
    10:00 +3°C° 0 mm 2 mps 611 mmHg 63%
    11:00 +4°C° 0 mm 2 mps 612 mmHg 58%
    12:00 +4°C° 0 mm 3 mps 612 mmHg 54%
    13:00 +5°C° 0 mm 2 mps 611 mmHg 57%
    14:00 +4°C° 0 mm 2 mps 610 mmHg 59%
    15:00 +4°C° 0 mm 2 mps 610 mmHg 62%
    16:00 +2°C° 0.1 mm 2 mps 609 mmHg 69%
    17:00 +1°C° 0.1 mm 2 mps 608 mmHg 76%
    18:00 +1°C° 0.1 mm 1 mps 607 mmHg 82%
    19:00 0°C° 1.1 mm 1 mps 607 mmHg 85%
    20:00 0°C° 1.1 mm 1 mps 607 mmHg 87%
    21:00 -1°C° 1.1 mm 1 mps 608 mmHg 90%
    22:00 -3°C° 1.4 mm 2 mps 607 mmHg 91%
    23:00 -3°C° 1.4 mm 2 mps 607 mmHg 92%

    26 January, Friday

    Time Temperature Precipitation Wind Pressure Humidity
    00:00 -3°C° 1.4 mm 2 mps 607 mmHg 93%
    01:00 -5°C° 0.8 mm 3 mps 607 mmHg 93%
    02:00 -5°C° 0.8 mm 3 mps 606 mmHg 92%
    03:00 -5°C° 0.8 mm 3 mps 606 mmHg 92%
    04:00 -6°C° 0.6 mm 3 mps 606 mmHg 91%
    05:00 -6°C° 0.6 mm 3 mps 606 mmHg 91%
    06:00 -6°C° 0.6 mm 3 mps 607 mmHg 90%
    07:00 -6°C° 0.4 mm 3 mps 607 mmHg 88%
    08:00 -6°C° 0.4 mm 3 mps 608 mmHg 87%
    09:00 -6°C° 0.4 mm 3 mps 608 mmHg 85%
    10:00 -6°C° 0.3 mm 3 mps 608 mmHg 83%
    11:00 -5°C° 0.3 mm 3 mps 609 mmHg 80%
    12:00 -5°C° 0.3 mm 3 mps 609 mmHg 78%
    13:00 -5°C° 0.1 mm 3 mps 609 mmHg 78%
    14:00 -5°C° 0.1 mm 3 mps 609 mmHg 77%
    15:00 -5°C° 0.1 mm 3 mps 609 mmHg 76%
    16:00 -6°C° 0 mm 3 mps 610 mmHg 78%
    17:00 -7°C° 0 mm 3 mps 610 mmHg 80%
    18:00 -8°C° 0 mm 3 mps 610 mmHg 81%
    19:00 -8°C° 0 mm 3 mps 610 mmHg 81%
    20:00 -8°C° 0 mm 3 mps 611 mmHg 81%
    21:00 -9°C° 0 mm 3 mps 611 mmHg 82%
    22:00 -9°C° 0 mm 3 mps 611 mmHg 81%
    23:00 -9°C° 0 mm 3 mps 611 mmHg 81%

    27 January, Saturday

    Time Temperature Precipitation Wind Pressure Humidity
    00:00 -10°C° 0 mm 4 mps 611 mmHg 81%
    01:00 -10°C° 0 mm 4 mps 611 mmHg 80%
    02:00 -11°C° 0 mm 4 mps 611 mmHg 79%
    03:00 -11°C° 0 mm 4 mps 611 mmHg 78%
    04:00 -11°C° 0 mm 4 mps 611 mmHg 79%
    05:00 -11°C° 0 mm 4 mps 611 mmHg 79%
    06:00 -11°C° 0 mm 4 mps 611 mmHg 79%
    07:00 -10°C° 0 mm 4 mps 612 mmHg 77%
    08:00 -9°C° 0 mm 4 mps 612 mmHg 76%
    09:00 -8°C° 0 mm 4 mps 613 mmHg 74%
    10:00 -8°C° 0.1 mm 4 mps 613 mmHg 72%
    11:00 -7°C° 0.1 mm 4 mps 613 mmHg 70%
    12:00 -5°C° 0.1 mm 4 mps 613 mmHg 68%
    13:00 -7°C° 0.1 mm 4 mps 613 mmHg 68%
    14:00 -7°C° 0.1 mm 4 mps 613 mmHg 68%
    15:00 -7°C° 0.1 mm 4 mps 612 mmHg 68%
    16:00 -8°C° 0.1 mm 4 mps 612 mmHg 72%
    17:00 -9°C° 0.1 mm 4 mps 612 mmHg 75%
    18:00 -10°C° 0.1 mm 4 mps 612 mmHg 79%
    19:00 -10°C° 0 mm 4 mps 613 mmHg 79%
    20:00 -9°C° 0 mm 3 mps 613 mmHg 80%
    21:00 -9°C° 0 mm 3 mps 613 mmHg 80%
    22:00 -9°C° 0 mm 3 mps 614 mmHg 81%
    23:00 -10°C° 0 mm 3 mps 614 mmHg 81%
    Show more